Weather History for PAAK - February, 2013

Change the Weather History Date:

Wednesday, February 20, 2013

  Actual Average (PADK) Record (PADK)
Temperature  
Mean Temperature 32 °F -  
Max Temperature 37 °F 36 °F 45 °F (1956)
Min Temperature 28 °F 27 °F 13 °F (1971)
Degree Days  
Heating Degree Days 32    
Moisture  
Dew Point 27 °F    
Average Humidity 76    
Maximum Humidity 87    
Minimum Humidity 69    
Precipitation  
Precipitation 0.00 in - - ()
Sea Level Pressure  
Sea Level Pressure 29.36 in    
Wind  
Wind Speed 8 mph (SW)    
Max Wind Speed 14 mph    
Max Gust Speed 20 mph    
Visibility 9 miles    
Events      
Averages and records for this station are not official NWS values.
T = Trace of Precipitation, MM = Missing Value Source: NWS Daily Summary

Daily Weather History Graph

Daily Weather History Graph

Search for Another Location

Airport or City:

Trip Planner

Search our weather history database for the weather conditions in past years. The results will help you decide how hot, cold, wet, or windy it might be!

Date:

Astronomy

Feb. 20, 2013 Rise Set
Actual Time 8:41 AM HAST 7:00 PM HAST
Civil Twilight 8:06 AM HAST 7:35 PM HAST
Nautical Twilight 7:27 AM HAST 8:14 PM HAST
Astronomical Twilight 6:47 AM HAST 8:54 PM HAST
Moon 2:11 PM HAST (2/20) 5:35 AM HAST (2/20)
Length of Visible Light 11h 29m
Length of Day
10h 19m
Waxing Gibbous, 77% of the Moon is Illuminated
Feb 20
Waxing Gibbous
Feb 25
Full
Mar 4
Last Quarter
Mar 11
New
Mar 19
First Quarter

Hourly Weather History & Observations

Time (HAST) Temp. Windchill Dew Point Humidity Pressure Visibility Wind Dir Wind Speed Gust Speed Precip Events Conditions
12:16 AM 30.2 °F 21.3 °F 24.8 °F 80% 29.42 in 10.0 mi SW 10.4 mph - N/A   Clear
12:36 AM 30.2 °F 21.3 °F 21.2 °F 69% 29.42 in 10.0 mi WSW 10.4 mph - N/A   Clear
12:56 AM 30.2 °F 21.3 °F 21.2 °F 69% 29.43 in 10.0 mi WSW 10.4 mph - N/A   Clear
1:16 AM 28.4 °F 19.7 °F 19.4 °F 69% 29.44 in 10.0 mi WSW 9.2 mph - N/A   Clear
1:36 AM 30.2 °F 22.6 °F 21.2 °F 69% 29.44 in 10.0 mi SW 8.1 mph - N/A   Clear
1:56 AM 32.0 °F 23.6 °F 23.0 °F 69% 29.44 in 10.0 mi SW 10.4 mph - N/A   Mostly Cloudy
2:16 AM 33.8 °F 24.8 °F 24.8 °F 70% 29.44 in 10.0 mi SW 12.7 mph - N/A   Mostly Cloudy
2:36 AM 33.8 °F 25.3 °F 26.6 °F 75% 29.45 in 10.0 mi SW 11.5 mph - N/A   Mostly Cloudy
2:56 AM 33.8 °F 27.0 °F 26.6 °F 75% 29.45 in 3.0 mi West 8.1 mph - N/A   Overcast
3:16 AM 30.2 °F 20.8 °F 26.6 °F 86% 29.45 in 10.0 mi West 11.5 mph - N/A   Mostly Cloudy
3:36 AM 30.2 °F 24.3 °F 24.8 °F 80% 29.45 in 10.0 mi West 5.8 mph - N/A   Partly Cloudy
3:56 AM 30.2 °F 24.3 °F 23.0 °F 75% 29.46 in 10.0 mi WSW 5.8 mph - N/A   Scattered Clouds
4:16 AM 33.8 °F 27.7 °F 24.8 °F 70% 29.46 in 10.0 mi SW 6.9 mph - N/A   Mostly Cloudy
4:36 AM 33.8 °F 25.3 °F 28.4 °F 81% 29.45 in 10.0 mi SSW 11.5 mph - N/A   Mostly Cloudy
4:56 AM 33.8 °F 25.8 °F 24.8 °F 70% 29.45 in 9.0 mi SW 10.4 mph - N/A   Mostly Cloudy
5:16 AM 33.8 °F 24.8 °F 28.4 °F 81% 29.45 in 7.0 mi WSW 12.7 mph 18.4 mph N/A   Mostly Cloudy
5:36 AM 33.8 °F 27.0 °F 26.6 °F 75% 29.44 in 10.0 mi SW 8.1 mph - N/A   Partly Cloudy
5:56 AM 32.0 °F 24.2 °F 26.6 °F 80% 29.44 in 10.0 mi SW 9.2 mph - N/A   Clear
6:16 AM 32.0 °F 25.6 °F 24.8 °F 75% 29.44 in 10.0 mi SW 6.9 mph - N/A   Scattered Clouds
6:36 AM 33.8 °F 27.0 °F 28.4 °F 81% 29.43 in 10.0 mi SW 8.1 mph - N/A   Mostly Cloudy
6:56 AM 33.8 °F 26.4 °F 28.4 °F 81% 29.43 in 10.0 mi SSW 9.2 mph - N/A   Scattered Clouds
7:16 AM 33.8 °F 28.6 °F 28.4 °F 81% 29.43 in 10.0 mi SW 5.8 mph - N/A   Mostly Cloudy
7:36 AM 33.8 °F 24.8 °F 26.6 °F 75% 29.43 in 3.0 mi SSW 12.7 mph - N/A   Overcast
7:56 AM 33.8 °F 27.0 °F 26.6 °F 75% 29.43 in 10.0 mi SSW 8.1 mph - N/A   Mostly Cloudy
8:16 AM 33.8 °F 27.7 °F 26.6 °F 75% 29.43 in 10.0 mi SSW 6.9 mph - N/A   Mostly Cloudy
8:36 AM 33.8 °F 26.4 °F 26.6 °F 75% 29.42 in 10.0 mi South 9.2 mph - N/A   Mostly Cloudy
8:56 AM 33.8 °F 27.0 °F 26.6 °F 75% 29.41 in 10.0 mi SSW 8.1 mph - N/A   Mostly Cloudy
9:16 AM 33.8 °F 26.4 °F 24.8 °F 70% 29.41 in 10.0 mi South 9.2 mph - N/A   Scattered Clouds
9:36 AM 33.8 °F 28.6 °F 26.6 °F 75% 29.40 in 10.0 mi SSW 5.8 mph - N/A   Mostly Cloudy
9:56 AM 33.8 °F 27.7 °F 24.8 °F 70% 29.40 in 10.0 mi SSW 6.9 mph - N/A   Scattered Clouds
10:16 AM 33.8 °F 27.7 °F 26.6 °F 75% 29.39 in 10.0 mi South 6.9 mph - N/A   Scattered Clouds
10:36 AM 33.8 °F 27.7 °F 26.6 °F 75% 29.39 in 10.0 mi South 6.9 mph - N/A   Mostly Cloudy
10:56 AM 35.6 °F 29.2 °F 26.6 °F 70% 29.37 in 10.0 mi South 8.1 mph - N/A   Mostly Cloudy
11:16 AM 33.8 °F 27.0 °F 26.6 °F 75% 29.37 in 10.0 mi SSW 8.1 mph - N/A   Scattered Clouds
11:36 AM 35.6 °F 30.7 °F 28.4 °F 75% 29.36 in 10.0 mi South 5.8 mph - N/A   Mostly Cloudy
11:56 AM 35.6 °F 29.9 °F 26.6 °F 70% 29.35 in 10.0 mi SSW 6.9 mph - N/A   Scattered Clouds
12:16 PM 35.6 °F 28.0 °F 26.6 °F 70% 29.35 in 10.0 mi SSW 10.4 mph - N/A   Partly Cloudy
12:36 PM 35.6 °F 28.6 °F 26.6 °F 70% 29.34 in 10.0 mi SSW 9.2 mph - N/A   Partly Cloudy
12:56 PM 35.6 °F 29.9 °F 26.6 °F 70% 29.33 in 10.0 mi South 6.9 mph - N/A   Partly Cloudy
1:16 PM 35.6 °F 30.7 °F 26.6 °F 70% 29.32 in 10.0 mi SSW 5.8 mph - N/A   Scattered Clouds
1:36 PM 35.6 °F 29.2 °F 26.6 °F 70% 29.31 in 10.0 mi South 8.1 mph - N/A   Mostly Cloudy
1:56 PM 35.6 °F 31.7 °F 28.4 °F 75% 29.30 in 10.0 mi NNE 4.6 mph - N/A   Overcast
2:16 PM 37.4 °F 33.8 °F 30.2 °F 75% 29.29 in 10.0 mi East 4.6 mph - N/A   Overcast
2:36 PM 37.4 °F 32.1 °F 28.4 °F 70% 29.28 in 10.0 mi East 6.9 mph - N/A   Overcast
2:56 PM 37.4 °F 32.8 °F 28.4 °F 70% 29.27 in 10.0 mi East 5.8 mph - N/A   Overcast
3:16 PM 37.4 °F 32.8 °F 28.4 °F 70% 29.26 in 10.0 mi East 5.8 mph - N/A   Overcast
3:36 PM 37.4 °F 34.9 °F 28.4 °F 70% 29.26 in 10.0 mi ESE 3.5 mph - N/A   Overcast
3:56 PM 35.6 °F 31.7 °F 28.4 °F 75% 29.25 in 10.0 mi SW 4.6 mph - N/A   Scattered Clouds
4:16 PM 35.6 °F 30.7 °F 28.4 °F 75% 29.25 in 10.0 mi SW 5.8 mph - N/A   Mostly Cloudy
4:36 PM 35.6 °F 32.8 °F 28.4 °F 75% 29.24 in 10.0 mi SW 3.5 mph - N/A   Overcast
4:56 PM 35.6 °F - 28.4 °F 75% 29.24 in 10.0 mi Calm Calm - N/A   Mostly Cloudy
5:16 PM 35.6 °F - 28.4 °F 75% 29.24 in 10.0 mi Calm Calm - N/A   Clear
5:36 PM 33.8 °F - 28.4 °F 81% 29.24 in 10.0 mi Calm Calm - N/A   Partly Cloudy
5:56 PM 33.8 °F - 28.4 °F 81% 29.24 in 10.0 mi Calm Calm - N/A   Clear
6:16 PM 33.8 °F - 28.4 °F 81% 29.25 in 10.0 mi Calm Calm - N/A   Scattered Clouds
6:36 PM 33.8 °F - 28.4 °F 81% 29.25 in 10.0 mi Calm Calm - N/A   Scattered Clouds
6:56 PM 33.8 °F - 26.6 °F 75% 29.26 in 10.0 mi Calm Calm - N/A   Mostly Cloudy
7:16 PM 33.8 °F 25.8 °F 26.6 °F 75% 29.26 in 10.0 mi West 10.4 mph - N/A   Overcast
7:36 PM 33.8 °F 26.4 °F 28.4 °F 81% 29.27 in 5.0 mi West 9.2 mph - N/A   Overcast
7:56 PM 33.8 °F 27.0 °F 28.4 °F 81% 29.27 in 9.0 mi West 8.1 mph - N/A   Overcast
8:16 PM 33.8 °F 27.7 °F 26.6 °F 75% 29.28 in 10.0 mi West 6.9 mph - N/A   Overcast
8:36 PM 33.8 °F - 28.4 °F 81% 29.29 in 10.0 mi Calm Calm - N/A   Overcast
8:56 PM 33.8 °F 28.6 °F 28.4 °F 81% 29.29 in 10.0 mi North 5.8 mph - N/A   Overcast
9:16 PM 33.8 °F 29.6 °F 28.4 °F 81% 29.30 in 9.0 mi NNW 4.6 mph - N/A   Overcast
9:36 PM 33.8 °F - 28.4 °F 81% 29.31 in 10.0 mi Calm Calm - N/A   Overcast
9:56 PM 33.8 °F - 30.2 °F 87% 29.32 in 2.5 mi Calm Calm - N/A   Overcast
10:16 PM 33.8 °F - 28.4 °F 81% 29.32 in 7.0 mi Calm Calm - N/A   Overcast
10:36 PM 32.0 °F - 28.4 °F 87% 29.33 in 7.0 mi Calm Calm - N/A   Overcast
10:56 PM 33.8 °F 25.8 °F 30.2 °F 87% 29.33 in 3.0 mi South 10.4 mph - N/A   Overcast
11:16 PM 33.8 °F 25.3 °F 30.2 °F 87% 29.34 in 6.0 mi South 11.5 mph - N/A   Overcast
11:36 PM 33.8 °F 24.3 °F 30.2 °F 87% 29.34 in 10.0 mi South 13.8 mph 18.4 mph N/A   Overcast
11:56 PM 33.8 °F 24.8 °F 30.2 °F 87% 29.34 in 8.0 mi South 12.7 mph 19.6 mph N/A   Overcast